| time (UTC) | temp F | wind direction | speed MPH | gust MPH | rain 1hr in | rain 24hr in | rain mn in | humidity % | barometer mb |
| 20260905111634 | 78 | 148 | 1.0 | 3.0 | 0.00 | 0.05 | 0.00 | 79 | 1011.8 |
| 20260905110630 | 78 | 155 | 1.0 | 2.0 | 0.00 | 0.05 | 0.00 | 78 | 1011.9 |
| 20260905110115 | 78 | 155 | 0.0 | 1.0 | 0.00 | 0.05 | 0.00 | 78 | 1011.8 |
| 20260905104628 | 78 | 157 | 1.0 | 5.0 | 0.00 | 0.05 | 0.00 | 78 | 1011.8 |
| 20260905103622 | 79 | 154 | 1.0 | 2.0 | 0.00 | 0.05 | 0.00 | 77 | 1011.9 |
| 20260905102621 | 79 | 163 | 1.0 | 4.0 | 0.00 | 0.05 | 0.00 | 77 | 1011.9 |
| 20260905101621 | 79 | 165 | 1.0 | 4.0 | 0.00 | 0.05 | 0.00 | 77 | 1011.8 |
| 20260905100623 | 79 | 165 | 2.0 | 5.0 | 0.00 | 0.05 | 0.00 | 76 | 1011.8 |
| 20260905095623 | 79 | 161 | 3.0 | 5.0 | 0.00 | 0.05 | 0.00 | 76 | 1011.9 |
| 20260905094621 | 79 | 161 | 2.0 | 5.0 | 0.00 | 0.05 | 0.00 | 76 | 1011.9 |
| 20260905093623 | 79 | 161 | 2.0 | 4.0 | 0.00 | 0.07 | 0.00 | 75 | 1011.9 |
| 20260905092622 | 79 | 148 | 2.0 | 4.0 | 0.00 | 0.07 | 0.00 | 75 | 1011.8 |
| 20260905091620 | 80 | 184 | 2.0 | 5.0 | 0.00 | 0.07 | 0.00 | 75 | 1011.8 |
| 20260905090622 | 80 | 161 | 1.0 | 4.0 | 0.00 | 0.07 | 0.00 | 74 | 1011.8 |
| 20260905085617 | 80 | 161 | 2.0 | 4.0 | 0.00 | 0.07 | 0.00 | 74 | 1011.8 |
| 20260905085058 | 80 | 161 | 2.0 | 4.0 | 0.00 | 0.07 | 0.00 | 73 | 1011.7 |
| 20260905084055 | 80 | 161 | 1.0 | 5.0 | 0.00 | 0.07 | 0.00 | 73 | 1011.6 |
| 20260905082617 | 80 | 192 | 3.0 | 5.0 | 0.00 | 0.07 | 0.00 | 73 | 1011.6 |
| 20260905081619 | 81 | 186 | 3.0 | 6.0 | 0.00 | 0.07 | 0.00 | 72 | 1011.6 |
| 20260905080618 | 81 | 190 | 4.0 | 7.0 | 0.00 | 0.07 | 0.00 | 72 | 1011.4 |
| 20260905075618 | 81 | 199 | 3.0 | 6.0 | 0.00 | 0.07 | 0.00 | 71 | 1011.5 |
| 20260905074612 | 82 | 206 | 5.0 | 9.0 | 0.00 | 0.07 | 0.00 | 70 | 1011.6 |
| 20260905074103 | 82 | 194 | 5.0 | 9.0 | 0.00 | 0.07 | 0.00 | 70 | 1011.7 |
| 20260905072613 | 82 | 185 | 5.0 | 8.0 | 0.00 | 0.07 | 0.00 | 69 | 1011.8 |
| 20260905071612 | 82 | 199 | 5.0 | 9.0 | 0.00 | 0.07 | 0.00 | 69 | 1011.8 |
| 20260905070610 | 83 | 197 | 5.0 | 8.0 | 0.00 | 0.07 | 0.00 | 68 | 1011.8 |
| 20260905070101 | 83 | 198 | 5.0 | 10.0 | 0.00 | 0.07 | 0.00 | 68 | 1011.9 |
| 20260905064611 | 83 | 198 | 3.0 | 6.0 | 0.00 | 0.07 | 0.00 | 68 | 1012.0 |
| 20260905063611 | 83 | 196 | 4.0 | 7.0 | 0.00 | 0.07 | 0.00 | 67 | 1011.9 |
| 20260905062615 | 84 | 157 | 3.0 | 8.0 | 0.00 | 0.07 | 0.00 | 67 | 1011.9 |
| 20260905061609 | 84 | 173 | 4.0 | 7.0 | 0.00 | 0.07 | 0.00 | 66 | 1011.9 |
| 20260905060608 | 84 | 162 | 4.0 | 9.0 | 0.00 | 0.07 | 0.00 | 65 | 1011.9 |
| 20260905055609 | 85 | 183 | 6.0 | 12.0 | 0.00 | 0.07 | 0.00 | 64 | 1011.9 |
| 20260905054608 | 85 | 189 | 6.0 | 12.0 | 0.00 | 0.07 | 0.00 | 63 | 1011.8 |
| 20260905054103 | 85 | 175 | 6.0 | 15.0 | 0.00 | 0.07 | 0.00 | 63 | 1011.7 |
| 20260905052607 | 86 | 182 | 4.0 | 10.0 | 0.00 | 0.07 | 0.00 | 62 | 1011.7 |
| 20260905052046 | 86 | 145 | 3.0 | 9.0 | 0.00 | 0.07 | 0.00 | 60 | 1011.6 |
| 20260905050608 | 86 | 147 | 3.0 | 6.0 | 0.00 | 0.07 | 0.00 | 59 | 1011.6 |
| 20260905045607 | 87 | 167 | 4.0 | 9.0 | 0.00 | 0.07 | 0.07 | 58 | 1011.4 |
| 20260905044607 | 87 | 188 | 5.0 | 11.0 | 0.00 | 0.07 | 0.07 | 58 | 1011.5 |
| 20260905043608 | 87 | 181 | 5.0 | 11.0 | 0.00 | 0.07 | 0.07 | 57 | 1011.4 |
| 20260905043047 | 88 | 144 | 4.0 | 12.0 | 0.00 | 0.07 | 0.07 | 56 | 1011.4 |
| 20260905041606 | 88 | 123 | 6.0 | 15.0 | 0.00 | 0.07 | 0.07 | 55 | 1011.3 |
| 20260905040607 | 89 | 136 | 5.0 | 13.0 | 0.00 | 0.07 | 0.07 | 54 | 1011.3 |
| 20260905035608 | 89 | 178 | 4.0 | 10.0 | 0.00 | 0.07 | 0.07 | 53 | 1011.3 |
| 20260905034607 | 89 | 165 | 3.0 | 9.0 | 0.00 | 0.07 | 0.07 | 53 | 1011.2 |
| 20260905033609 | 90 | 167 | 3.0 | 10.0 | 0.00 | 0.07 | 0.07 | 52 | 1011.2 |
| 20260905032608 | 90 | 163 | 3.0 | 12.0 | 0.00 | 0.07 | 0.07 | 52 | 1011.2 |
| 20260905031607 | 90 | 114 | 3.0 | 7.0 | 0.00 | 0.07 | 0.07 | 51 | 1011.2 |
| 20260905030609 | 91 | 167 | 3.0 | 9.0 | 0.00 | 0.07 | 0.07 | 51 | 1011.1 |
| 20260905030101 | 91 | 162 | 3.0 | 9.0 | 0.00 | 0.07 | 0.07 | 51 | 1010.8 |
| 20260905024609 | 91 | 144 | 2.0 | 10.0 | 0.00 | 0.07 | 0.07 | 50 | 1010.8 |
| 20260905023616 | 91 | 169 | 2.0 | 6.0 | 0.00 | 0.07 | 0.07 | 50 | 1010.7 |
| 20260905022607 | 92 | 150 | 2.0 | 7.0 | 0.00 | 0.07 | 0.07 | 50 | 1010.5 |
| 20260905021608 | 92 | 171 | 3.0 | 7.0 | 0.00 | 0.07 | 0.07 | 50 | 1010.4 |
| 20260905020612 | 92 | 158 | 3.0 | 9.0 | 0.00 | 0.07 | 0.07 | 50 | 1010.3 |
| 20260905015608 | 92 | 154 | 2.0 | 6.0 | 0.00 | 0.07 | 0.07 | 49 | 1010.1 |
| 20260905014605 | 92 | 163 | 4.0 | 11.0 | 0.00 | 0.07 | 0.07 | 49 | 1009.9 |
| 20260905013605 | 93 | 152 | 3.0 | 7.0 | 0.00 | 0.07 | 0.07 | 48 | 1009.8 |
| 20260905013533 | 93 | 139 | 3.0 | 8.0 | 0.00 | 0.07 | 0.07 | 48 | 1009.7 |
| 20260905011606 | 94 | 131 | 2.0 | 7.0 | 0.00 | 0.07 | 0.07 | 46 | 1009.5 |
| 20260905010601 | 94 | 169 | 2.0 | 7.0 | 0.00 | 0.07 | 0.07 | 46 | 1009.5 |
| 20260905005604 | 94 | 78 | 2.0 | 9.0 | 0.00 | 0.07 | 0.07 | 45 | 1009.3 |
| 20260905004600 | 94 | 155 | 3.0 | 9.0 | 0.00 | 0.07 | 0.07 | 44 | 1009.2 |
| 20260905003600 | 95 | 150 | 3.0 | 10.0 | 0.00 | 0.07 | 0.07 | 43 | 1009.0 |
| 20260905003040 | 95 | 162 | 2.0 | 10.0 | 0.00 | 0.07 | 0.07 | 43 | 1009.0 |
| 20260905001559 | 96 | 126 | 2.0 | 8.0 | 0.00 | 0.07 | 0.07 | 42 | 1009.0 |
| 20260905000604 | 96 | 162 | 2.0 | 7.0 | 0.00 | 0.07 | 0.07 | 41 | 1008.8 |
| 20260904235559 | 96 | 170 | 3.0 | 8.0 | 0.00 | 0.07 | 0.07 | 42 | 1008.8 |
| 20260904234600 | 97 | 186 | 3.0 | 11.0 | 0.00 | 0.07 | 0.07 | 42 | 1008.8 |
| 20260904233555 | 97 | 73 | 3.0 | 9.0 | 0.00 | 0.07 | 0.07 | 41 | 1008.8 |
| 20260904232555 | 98 | 91 | 2.0 | 7.0 | 0.00 | 0.07 | 0.07 | 40 | 1008.8 |
| 20260904231555 | 98 | 81 | 4.0 | 10.0 | 0.00 | 0.07 | 0.07 | 40 | 1008.8 |
| 20260904230553 | 98 | 167 | 4.0 | 11.0 | 0.00 | 0.07 | 0.07 | 40 | 1008.8 |
| 20260904225553 | 98 | 159 | 4.0 | 10.0 | 0.00 | 0.07 | 0.07 | 41 | 1008.8 |
| 20260904224554 | 98 | 188 | 4.0 | 12.0 | 0.00 | 0.07 | 0.07 | 41 | 1008.9 |
| 20260904224027 | 97 | 159 | 3.0 | 8.0 | 0.00 | 0.07 | 0.07 | 42 | 1009.0 |
| 20260904222553 | 98 | 149 | 3.0 | 10.0 | 0.00 | 0.07 | 0.07 | 42 | 1009.1 |
| 20260904221557 | 98 | 167 | 4.0 | 10.0 | 0.00 | 0.07 | 0.07 | 42 | 1009.2 |
| 20260904220548 | 98 | 99 | 3.0 | 10.0 | 0.00 | 0.07 | 0.07 | 43 | 1009.2 |
| 20260904215547 | 98 | 96 | 2.0 | 10.0 | 0.00 | 0.07 | 0.07 | 43 | 1009.1 |
| 20260904214546 | 98 | 94 | 2.0 | 10.0 | 0.00 | 0.07 | 0.07 | 43 | 1009.3 |
| 20260904213553 | 99 | 109 | 3.0 | 8.0 | 0.00 | 0.07 | 0.07 | 44 | 1009.4 |
| 20260904212547 | 98 | 78 | 5.0 | 12.0 | 0.00 | 0.07 | 0.07 | 44 | 1009.5 |
| 20260904211547 | 97 | 210 | 7.0 | 14.0 | 0.00 | 0.07 | 0.07 | 43 | 1009.6 |
| 20260904211024 | 97 | 227 | 5.0 | 14.0 | 0.00 | 0.07 | 0.07 | 45 | 1009.8 |
| 20260904205547 | 97 | 178 | 3.0 | 10.0 | 0.00 | 0.07 | 0.07 | 45 | 1009.8 |
| 20260904204548 | 98 | 141 | 6.0 | 14.0 | 0.00 | 0.07 | 0.07 | 44 | 1010.0 |
| 20260904203542 | 97 | 170 | 7.0 | 14.0 | 0.00 | 0.07 | 0.07 | 42 | 1010.1 |
| 20260904202546 | 97 | 178 | 8.0 | 19.0 | 0.00 | 0.07 | 0.07 | 42 | 1010.3 |
| 20260904202021 | 97 | 168 | 6.0 | 14.0 | 0.00 | 0.07 | 0.07 | 42 | 1010.4 |
| 20260904200542 | 97 | 169 | 6.0 | 13.0 | 0.00 | 0.07 | 0.07 | 44 | 1010.5 |
| 20260904195543 | 97 | 186 | 7.0 | 12.0 | 0.00 | 0.07 | 0.07 | 46 | 1010.6 |
| 20260904194543 | 96 | 202 | 6.0 | 13.0 | 0.00 | 0.07 | 0.07 | 46 | 1010.7 |
| 20260904193542 | 95 | 154 | 6.0 | 17.0 | 0.00 | 0.07 | 0.07 | 47 | 1010.9 |
| 20260904192543 | 95 | 216 | 6.0 | 12.0 | 0.00 | 0.07 | 0.07 | 47 | 1011.1 |
| 20260904191542 | 95 | 146 | 7.0 | 18.0 | 0.00 | 0.07 | 0.07 | 48 | 1011.2 |
| 20260904190536 | 94 | 191 | 8.0 | 14.0 | 0.00 | 0.07 | 0.07 | 49 | 1011.3 |
| 20260904190019 | 94 | 172 | 5.0 | 12.0 | 0.00 | 0.07 | 0.07 | 50 | 1011.5 |
| 20260904184537 | 94 | 165 | 4.0 | 11.0 | 0.00 | 0.07 | 0.07 | 51 | 1011.7 |
| 20260904184022 | 93 | 180 | 5.0 | 14.0 | 0.00 | 0.07 | 0.07 | 51 | 1011.8 |
| 20260904182535 | 92 | 180 | 5.0 | 19.0 | 0.00 | 0.07 | 0.07 | 50 | 1011.9 |
| 20260904181534 | 92 | 150 | 6.0 | 11.0 | 0.00 | 0.07 | 0.07 | 52 | 1012.0 |
| 20260904181025 | 91 | 193 | 6.0 | 14.0 | 0.00 | 0.07 | 0.07 | 52 | 1012.2 |
| 20260904175535 | 90 | 176 | 8.0 | 13.0 | 0.00 | 0.07 | 0.07 | 53 | 1012.4 |
| 20260904174540 | 89 | 224 | 9.0 | 15.0 | 0.00 | 0.07 | 0.07 | 52 | 1012.5 |
| 20260904173531 | 89 | 216 | 9.0 | 16.0 | 0.00 | 0.07 | 0.07 | 53 | 1012.6 |
| 20260904172531 | 88 | 207 | 10.0 | 16.0 | 0.00 | 0.07 | 0.07 | 52 | 1012.7 |
| 20260904171529 | 88 | 192 | 9.0 | 15.0 | 0.00 | 0.07 | 0.07 | 53 | 1012.8 |
| 20260904170529 | 87 | 215 | 10.0 | 14.0 | 0.00 | 0.07 | 0.07 | 54 | 1012.9 |
| 20260904165529 | 86 | 219 | 10.0 | 17.0 | 0.00 | 0.07 | 0.07 | 55 | 1013.1 |
| 20260904164529 | 86 | 209 | 11.0 | 16.0 | 0.00 | 0.07 | 0.07 | 55 | 1013.1 |
| 20260904163530 | 86 | 194 | 10.0 | 18.0 | 0.00 | 0.07 | 0.07 | 57 | 1013.1 |
| 20260904162531 | 85 | 180 | 11.0 | 18.0 | 0.00 | 0.07 | 0.07 | 59 | 1013.2 |
| 20260904161530 | 84 | 161 | 11.0 | 19.0 | 0.00 | 0.07 | 0.07 | 64 | 1013.2 |
| 20260904160525 | 83 | 197 | 10.0 | 21.0 | 0.00 | 0.07 | 0.07 | 74 | 1013.1 |
| 20260904160010 | 82 | 200 | 8.0 | 15.0 | 0.01 | 0.07 | 0.07 | 75 | 1013.1 |
| 20260904154523 | 82 | 178 | 9.0 | 14.0 | 0.03 | 0.07 | 0.07 | 75 | 1013.1 |
| 20260904153524 | 82 | 154 | 9.0 | 19.0 | 0.05 | 0.07 | 0.07 | 76 | 1012.9 |
| 20260904152524 | 82 | 193 | 8.0 | 15.0 | 0.05 | 0.07 | 0.07 | 80 | 1012.9 |
| 20260904151522 | 81 | 186 | 6.0 | 12.0 | 0.05 | 0.07 | 0.07 | 81 | 1013.0 |
| 20260904150528 | 80 | 182 | 7.0 | 11.0 | 0.05 | 0.07 | 0.07 | 82 | 1012.9 |
| 20260904145523 | 80 | 185 | 7.0 | 11.0 | 0.04 | 0.06 | 0.06 | 82 | 1012.9 |
| 20260904144524 | 81 | 220 | 6.0 | 11.0 | 0.02 | 0.04 | 0.04 | 81 | 1012.8 |
| 20260904143519 | 80 | 172 | 5.0 | 11.0 | 0.00 | 0.02 | 0.02 | 83 | 1012.7 |
| 20260904142518 | 80 | 148 | 5.0 | 13.0 | 0.00 | 0.02 | 0.02 | 84 | 1012.6 |
| 20260904141521 | 79 | 134 | 4.0 | 10.0 | 0.00 | 0.02 | 0.02 | 83 | 1012.7 |
| 20260904140519 | 80 | 167 | 2.0 | 7.0 | 0.00 | 0.02 | 0.02 | 83 | 1012.8 |
| 20260904135954 | 80 | 157 | 1.0 | 7.0 | 0.00 | 0.02 | 0.02 | 84 | 1012.7 |
| 20260904134517 | 80 | 139 | 2.0 | 6.0 | 0.00 | 0.02 | 0.02 | 84 | 1012.6 |
| 20260904134016 | 79 | 183 | 2.0 | 6.0 | 0.00 | 0.02 | 0.02 | 84 | 1012.5 |
| 20260904132517 | 79 | 146 | 2.0 | 8.0 | 0.00 | 0.02 | 0.02 | 84 | 1012.4 |
| 20260904131521 | 79 | 139 | 4.0 | 14.0 | 0.00 | 0.02 | 0.02 | 84 | 1012.3 |
| 20260904130946 | 79 | 147 | 4.0 | 9.0 | 0.00 | 0.02 | 0.02 | 85 | 1012.2 |
| 20260904125954 | 78 | 149 | 2.0 | 7.0 | 0.00 | 0.02 | 0.02 | 86 | 1012.1 |
| 20260904124511 | 78 | 178 | 2.0 | 6.0 | 0.00 | 0.02 | 0.02 | 86 | 1011.9 |
| 20260904123511 | 78 | 154 | 3.0 | 7.0 | 0.00 | 0.02 | 0.02 | 86 | 1012.0 |
| 20260904123000 | 78 | 150 | 2.0 | 6.0 | 0.00 | 0.02 | 0.02 | 86 | 1012.0 |
| 20260904122008 | 78 | 175 | 1.0 | 6.0 | 0.00 | 0.02 | 0.02 | 86 | 1011.9 |
| 20260904120512 | 78 | 168 | 2.0 | 6.0 | 0.00 | 0.02 | 0.02 | 86 | 1011.8 |
| 20260904115510 | 78 | 161 | 2.0 | 6.0 | 0.00 | 0.02 | 0.02 | 86 | 1011.6 |
| 20260904114512 | 78 | 153 | 4.0 | 7.0 | 0.00 | 0.02 | 0.02 | 86 | 1011.5 |
| 20260904113506 | 78 | 155 | 3.0 | 7.0 | 0.00 | 0.02 | 0.02 | 86 | 1011.4 |
| 20260904112509 | 78 | 150 | 1.0 | 6.0 | 0.00 | 0.02 | 0.02 | 86 | 1011.4 |